Location: *
(53.9002°N, 27.5624°E)
Time: 23:30:15
(UTC+00:00)

Cosmos 397 - Pass Details

Date: 12 November 2019
Orbit: 576 x 2154 km, 65.7° (Epoch: 15 December)

Event Time Altitude Azimuth Distance (km) Brightness Sun altitude
Rises 16:23:16 0° 316° (NW) 3,075 8.7 -18.5°
Reaches altitude 10° 16:25:44 10° 318° (NW) 2,036 7.7 -18.9°
Maximum altitude 16:30:06 76° 45° (NE) 606 4.3 -19.5°
Enters shadow 16:31:14 46° 120° (ESE) 782 4.7 -19.7°
